This demonstration page uses our WeatherBlox Daily Observations layout. Learn more.

39.92423, -83.80882

Hourly Observations for August 21, 2018

Temp ( °F °C ) Dew Point ( °F °C ) Humidity (%) Winds ( mph kmh ) Pressure ( in mb ) Visibility ( mi km ) Precip ( " mm )
12:56 am 00:56 Cloudy 70 21.1 70 21.1 100 100 SSE 6 9 29.87 1012 10 16.0934 0 0
2:28 am 02:28 Mostly Cloudy with Light Rain 72 22 72 22 100 100 S 5 7 29.83 1010 10 16.0934 0 0.0254
2:56 am 02:56 Mostly Clear 71 21.7 71 21.7 100 100 S 5 7 29.83 1010 10 16.0934 0 0.0254
3:56 am 03:56 Clear 71 21.7 71 21.7 100 100 S 7 11 29.82 1010 10 16.0934 0 0
4:51 am 04:51 Mostly Cloudy with Nearby Thunderstorms 72 22 72 22 100 100 S 8 13 29.8 1009 9 14.48406 0 0
4:56 am 04:56 Mostly Cloudy with Light Thunderstorms 72 22.2 72 22.2 100 100 SSW 6 9 29.82 1010 9 14.48406 0 0.0254
5:02 am 05:02 Mostly Cloudy with Light Thunderstorms 72 22 72 22 100 100 SSW 8 13 29.8 1009 10 16.0934 0 0.0254
5:19 am 05:19 Cloudy 72 22 72 22 100 100 S 7 11 29.8 1009 10 16.0934 0 0.0254
5:54 am 05:54 Mostly Cloudy 72 22 72 22 100 100 S 8 13 29.8 1009 10 16.0934 0 0.0254
5:56 am 05:56 Mostly Cloudy 72 22.2 72 22.2 100 100 S 8 13 29.8 1009 10 16.0934 0 0.0254
6:56 am 06:56 Mostly Cloudy 72 22.2 71 21.7 97 97 SSW 7 11 29.8 1009 10 16.0934 0 0.0254
7:06 am 07:06 Cloudy 72 22 72 22 100 100 SSW 7 11 29.8 1009 10 16.0934 0 0
8:56 am 08:56 Cloudy 72 22.2 71 21.7 97 97 SW 9 15 29.83 1010 10 16.0934 0 0
9:39 am 09:39 Cloudy 73 23 70 21 89 89 SW 13 20 29.83 1010 10 16.0934 0.01 0.254
9:56 am 09:56 Cloudy 73 22.8 69 20.6 87 87 SW 10 17 29.83 1010 10 16.0934 0.01 0.254
10:34 am 10:34 Mostly Cloudy 75 24 70 21 83 83 SW 17 28 29.77 1008 10 16.0934 0 0
10:42 am 10:42 Mostly Cloudy 75 24 68 20 78 78 WSW 13 20 29.77 1008 10 16.0934 0 0
10:52 am 10:52 Partly Cloudy 75 24 70 21 83 83 WSW 15 24 29.77 1008 10 16.0934 0 0
10:56 am 10:56 Partly Cloudy 76 24.4 69 20.6 79 79 SW 13 20 29.83 1010 10 16.0934 0 0
11:04 am 11:04 Mostly Cloudy 75 24 70 21 83 83 SW 10 17 29.8 1009 10 16.0934 0 0
11:56 am 11:56 Cloudy 77 25 69 20.6 77 77 WSW 18 30 29.82 1010 10 16.0934 0 0
12:04 pm 12:04 Cloudy 75 24 68 20 78 78 SW 16 26 29.77 1008 10 16.0934 0 0
12:24 pm 12:24 Cloudy 75 24 68 20 78 78 SW 16 26 29.77 1008 10 16.0934 0 0
12:35 pm 12:35 Cloudy 77 25 68 20 74 74 WSW 20 31 29.77 1008 10 16.0934 0 0
12:48 pm 12:48 Cloudy 75 24 68 20 78 78 WSW 15 24 29.77 1008 10 16.0934 0 0
12:56 pm 12:56 Cloudy 76 24.4 68 20 77 77 WSW 14 22 29.82 1010 10 16.0934 0 0
1:49 pm 13:49 Cloudy with Light Rain 72 22 70 21 94 94 WSW 10 17 29.8 1009 5 8.0467 0.11 2.794
1:56 pm 13:56 Mostly Cloudy with Light Rain 75 23.9 72 22.2 90 90 SW 10 17 29.82 1010 10 16.0934 0.11 2.794
2:56 pm 14:56 Cloudy with Light Rain 71 21.7 70 21.1 96 96 WSW 13 20 29.83 1010 8 12.87472 0.04 1.016
3:56 pm 15:56 Mostly Cloudy 77 25 72 22.2 85 85 WSW 10 17 29.81 1010 10 16.0934 0.02 0.508
4:25 pm 16:25 Mostly Cloudy with Light Rain 73 23 70 21 89 89 W 10 17 29.8 1009 8 12.87472 0 0.0254
4:56 pm 16:56 Mostly Sunny 78 25.6 71 21.7 79 79 W 10 17 29.8 1009 10 16.0934 0 0.0254
5:56 pm 17:56 Mostly Cloudy 78 25.6 70 21.1 76 76 W 8 13 29.81 1010 10 16.0934 0 0
6:11 pm 18:11 Cloudy 73 23 66 19 78 78 NNW 10 17 29.8 1009 10 16.0934 0 0
6:19 pm 18:19 Cloudy 73 23 66 19 78 78 NNW 9 15 29.8 1009 10 16.0934 0 0
7:56 pm 19:56 Cloudy with Light Rain 72 22.2 70 21.1 94 94 SW 3 6 29.84 1011 10 16.0934 0 0.0254
8:21 pm 20:21 Cloudy with Heavy Rain 72 22 70 21 94 94 NW 13 20 29.85 1011 6 9.65604 0.02 0.508
8:35 pm 20:35 Cloudy 70 21 70 21 100 100 WNW 7 11 29.85 1011 10 16.0934 0.03 0.762
8:56 pm 20:56 Mostly Cloudy 69 20.6 69 20.6 100 100 WNW 6 9 29.87 1011 10 16.0934 0.03 0.762
9:56 pm 21:56 Partly Cloudy 67 19.4 67 19.4 100 100 W 5 7 29.9 1012 10 16.0934 0 0
10:26 pm 22:26 Cloudy 70 21 70 21 100 100 W 6 9 29.88 1012 10 16.0934 0 0
10:56 pm 22:56 Cloudy 70 21.1 69 20.6 97 97 W 6 9 29.9 1013 10 16.0934 0 0
11:34 pm 23:34 Cloudy with Light Rain 70 21 70 21 100 100 WNW 8 13 29.91 1013 4 6.43736 0.01 0.254
11:47 pm 23:47 Cloudy with Light Rain 70 21 70 21 100 100 WNW 9 15 29.91 1013 5 8.0467 0.02 0.508
11:56 pm 23:56 Cloudy with Light Rain 69 20.6 69 20.6 100 100 WNW 9 15 29.91 1013 5 8.0467 0.02 0.508

Powered by AerisWeather